Time,TemperatureF,DewpointF,PressureIn,WindDirection,WindDirectionDegrees,WindSpeedMPH,WindSpeedGustMPH,Humidity,HourlyPrecipIn,Conditions,Clouds,dailyrainin,SoftwareType,DateUTC
2013-09-02 00:08:00,69.0,68.0,29.81,East,81,1.0,8.0,95,0.00,,,0.00,weatherlink.com 1.10,2013-09-02 04:08:00,
2013-09-02 00:23:00,68.9,68.0,29.82,SE,135,1.0,6.0,95,0.00,,,0.00,weatherlink.com 1.10,2013-09-02 04:23:00,
2013-09-02 00:38:00,68.8,67.0,29.81,NE,41,1.0,3.0,95,0.14,,,0.14,weatherlink.com 1.10,2013-09-02 04:38:00,
2013-09-02 00:53:00,68.4,67.0,29.80,NE,50,0.0,0.0,95,0.22,,,0.22,weatherlink.com 1.10,2013-09-02 04:53:00,
2013-09-02 01:08:00,68.5,67.0,29.79,ENE,64,0.0,2.0,95,0.27,,,0.27,weatherlink.com 1.10,2013-09-02 05:08:00,
2013-09-02 01:23:00,68.6,67.0,29.78,East,88,1.0,2.0,95,0.27,,,0.27,weatherlink.com 1.10,2013-09-02 05:23:00,
2013-09-02 01:38:00,68.4,67.0,29.78,East,98,0.0,4.0,95,0.11,,,0.27,weatherlink.com 1.10,2013-09-02 05:38:00,
2013-09-02 01:53:00,68.2,67.0,29.78,ESE,102,1.0,3.0,95,0.05,,,0.27,weatherlink.com 1.10,2013-09-02 05:53:00,
2013-09-02 02:08:00,68.4,67.0,29.78,East,95,0.0,1.0,95,0.00,,,0.27,weatherlink.com 1.10,2013-09-02 06:08:00,
2013-09-02 02:23:00,68.5,67.0,29.78,NE,55,0.0,3.0,95,0.00,,,0.27,weatherlink.com 1.10,2013-09-02 06:23:00,
2013-09-02 02:38:00,68.5,67.0,29.78,SSE,147,0.0,0.0,95,0.00,,,0.27,weatherlink.com 1.10,2013-09-02 06:38:00,
2013-09-02 02:53:00,68.6,68.0,29.78,East,80,0.0,2.0,96,0.00,,,0.27,weatherlink.com 1.10,2013-09-02 06:53:00,
2013-09-02 03:08:00,68.4,67.0,29.78,SSE,162,1.0,4.0,95,0.00,,,0.27,weatherlink.com 1.10,2013-09-02 07:08:00,
2013-09-02 03:23:00,68.2,67.0,29.78,East,88,0.0,2.0,96,0.00,,,0.27,weatherlink.com 1.10,2013-09-02 07:23:00,
2013-09-02 03:38:00,68.0,67.0,29.77,SSE,159,0.0,6.0,95,0.00,,,0.27,weatherlink.com 1.10,2013-09-02 07:38:00,
2013-09-02 03:53:00,67.9,67.0,29.77,East,81,0.0,3.0,96,0.00,,,0.27,weatherlink.com 1.10,2013-09-02 07:53:00,
2013-09-02 04:08:00,67.8,67.0,29.77,East,83,2.0,5.0,96,0.01,,,0.28,weatherlink.com 1.10,2013-09-02 08:08:00,
2013-09-02 04:23:00,67.7,66.0,29.76,East,88,0.0,6.0,95,0.03,,,0.30,weatherlink.com 1.10,2013-09-02 08:23:00,
2013-09-02 04:38:00,67.6,67.0,29.76,NNE,31,0.0,2.0,96,0.09,,,0.36,weatherlink.com 1.10,2013-09-02 08:38:00,
2013-09-02 04:53:00,67.6,67.0,29.75,NNW,346,0.0,0.0,96,0.21,,,0.48,weatherlink.com 1.10,2013-09-02 08:53:00,
2013-09-02 05:08:00,67.5,66.0,29.76,NNW,348,0.0,0.0,96,0.27,,,0.55,weatherlink.com 1.10,2013-09-02 09:08:00,
2013-09-02 05:23:00,67.3,66.0,29.77,NNW,348,0.0,0.0,96,0.29,,,0.59,weatherlink.com 1.10,2013-09-02 09:23:00,
2013-09-02 05:38:00,67.1,66.0,29.76,NNW,348,0.0,0.0,96,0.25,,,0.61,weatherlink.com 1.10,2013-09-02 09:38:00,
2013-09-02 05:53:00,67.6,66.0,29.76,NE,45,0.0,3.0,95,0.15,,,0.63,weatherlink.com 1.10,2013-09-02 09:53:00,
2013-09-02 06:08:00,67.2,66.0,29.76,NE,43,0.0,0.0,95,0.11,,,0.66,weatherlink.com 1.10,2013-09-02 10:08:00,
2013-09-02 06:23:00,66.8,65.0,29.76,NE,44,0.0,0.0,95,0.12,,,0.71,weatherlink.com 1.10,2013-09-02 10:23:00,
2013-09-02 06:38:00,66.6,66.0,29.77,NE,44,0.0,0.0,96,0.11,,,0.72,weatherlink.com 1.10,2013-09-02 10:38:00,
2013-09-02 06:53:00,66.5,65.0,29.76,NE,44,0.0,0.0,96,0.09,,,0.72,weatherlink.com 1.10,2013-09-02 10:53:00,
2013-09-02 07:08:00,66.5,65.0,29.76,NE,43,0.0,0.0,96,0.05,,,0.72,weatherlink.com 1.10,2013-09-02 11:08:00,
2013-09-02 07:23:00,66.6,66.0,29.76,NNW,348,0.0,0.0,96,0.01,,,0.72,weatherlink.com 1.10,2013-09-02 11:23:00,
2013-09-02 07:38:00,67.0,66.0,29.75,NE,49,0.0,0.0,96,0.00,,,0.72,weatherlink.com 1.10,2013-09-02 11:38:00,
2013-09-02 07:53:00,67.4,66.0,29.75,NE,49,0.0,0.0,96,0.00,,,0.72,weatherlink.com 1.10,2013-09-02 11:53:00,
2013-09-02 08:08:00,67.7,67.0,29.75,SSE,162,0.0,0.0,96,0.00,,,0.72,weatherlink.com 1.10,2013-09-02 12:08:00,
2013-09-02 08:23:00,68.4,67.0,29.76,SSE,152,0.0,0.0,96,0.00,,,0.72,weatherlink.com 1.10,2013-09-02 12:23:00,
2013-09-02 08:38:00,68.7,67.0,29.77,SSE,151,0.0,0.0,95,0.00,,,0.72,weatherlink.com 1.10,2013-09-02 12:38:00,
2013-09-02 08:53:00,69.4,68.0,29.77,SSE,150,0.0,0.0,95,0.00,,,0.72,weatherlink.com 1.10,2013-09-02 12:53:00,
2013-09-02 09:08:00,69.3,68.0,29.77,East,90,0.0,0.0,94,0.00,,,0.72,weatherlink.com 1.10,2013-09-02 13:08:00,
2013-09-02 09:23:00,69.4,67.0,29.77,East,91,1.0,4.0,93,0.00,,,0.72,weatherlink.com 1.10,2013-09-02 13:23:00,
2013-09-02 09:38:00,69.7,68.0,29.77,SE,135,5.0,5.0,94,0.00,,,0.72,weatherlink.com 1.10,2013-09-02 13:38:00,
2013-09-02 09:53:00,69.8,68.0,29.77,East,95,0.0,3.0,93,0.00,,,0.72,weatherlink.com 1.10,2013-09-02 13:53:00,
2013-09-02 10:08:00,69.9,68.0,29.76,East,88,1.0,6.0,94,0.00,,,0.72,weatherlink.com 1.10,2013-09-02 14:08:00,
2013-09-02 10:24:00,70.1,68.0,29.76,South,170,3.0,6.0,93,0.00,,,0.72,weatherlink.com 1.10,2013-09-02 14:24:00,
2013-09-02 10:39:00,69.6,68.0,29.76,East,97,0.0,4.0,93,0.02,,,0.74,weatherlink.com 1.10,2013-09-02 14:39:00,
2013-09-02 10:54:00,69.4,68.0,29.75,ENE,77,3.0,5.0,94,0.05,,,0.77,weatherlink.com 1.10,2013-09-02 14:54:00,
2013-09-02 11:09:00,69.8,68.0,29.75,SSE,166,1.0,7.0,94,0.05,,,0.77,weatherlink.com 1.10,2013-09-02 15:09:00,
2013-09-02 11:23:00,70.2,69.0,29.75,East,92,1.0,7.0,94,0.05,,,0.77,weatherlink.com 1.10,2013-09-02 15:23:00,
2013-09-02 11:38:00,70.8,69.0,29.75,ESE,110,1.0,8.0,94,0.03,,,0.77,weatherlink.com 1.10,2013-09-02 15:38:00,
2013-09-02 11:53:00,72.1,70.0,29.74,SSE,155,2.0,8.0,93,0.00,,,0.77,weatherlink.com 1.10,2013-09-02 15:53:00,
2013-09-02 12:08:00,72.8,70.0,29.74,SE,145,1.0,7.0,92,0.00,,,0.77,weatherlink.com 1.10,2013-09-02 16:08:00,
2013-09-02 12:24:00,73.5,71.0,29.74,ESE,121,2.0,7.0,91,0.00,,,0.77,weatherlink.com 1.10,2013-09-02 16:24:00,
2013-09-02 12:39:00,74.1,71.0,29.73,ESE,115,1.0,6.0,90,0.00,,,0.77,weatherlink.com 1.10,2013-09-02 16:39:00,
2013-09-02 12:54:00,73.7,71.0,29.73,WSW,257,3.0,7.0,90,0.00,,,0.77,weatherlink.com 1.10,2013-09-02 16:54:00,
2013-09-02 13:09:00,73.7,71.0,29.73,East,81,3.0,6.0,90,0.00,,,0.77,weatherlink.com 1.10,2013-09-02 17:09:00,
2013-09-02 13:23:00,73.3,71.0,29.72,East,80,1.0,9.0,91,0.00,,,0.77,weatherlink.com 1.10,2013-09-02 17:23:00,
2013-09-02 13:38:00,72.7,70.0,29.73,East,89,3.0,7.0,92,0.00,,,0.77,weatherlink.com 1.10,2013-09-02 17:38:00,
2013-09-02 13:53:00,72.8,70.0,29.71,SSE,157,3.0,6.0,92,0.00,,,0.77,weatherlink.com 1.10,2013-09-02 17:53:00,
2013-09-02 14:08:00,73.2,71.0,29.71,East,89,1.0,6.0,91,0.00,,,0.77,weatherlink.com 1.10,2013-09-02 18:08:00,
2013-09-02 14:24:00,72.7,70.0,29.71,ESE,115,4.0,6.0,92,0.00,,,0.77,weatherlink.com 1.10,2013-09-02 18:24:00,
2013-09-02 14:39:00,72.5,70.0,29.70,East,88,3.0,6.0,92,0.00,,,0.77,weatherlink.com 1.10,2013-09-02 18:39:00,
2013-09-02 14:54:00,72.0,70.0,29.70,SE,146,4.0,7.0,92,0.00,,,0.77,weatherlink.com 1.10,2013-09-02 18:54:00,
2013-09-02 15:09:00,71.6,70.0,29.71,SSW,198,0.0,5.0,94,0.00,,,0.77,weatherlink.com 1.10,2013-09-02 19:09:00,
2013-09-02 15:24:00,71.7,70.0,29.71,East,89,2.0,5.0,93,0.00,,,0.77,weatherlink.com 1.10,2013-09-02 19:24:00,
2013-09-02 15:39:00,72.0,70.0,29.70,ESE,105,1.0,4.0,92,0.00,,,0.77,weatherlink.com 1.10,2013-09-02 19:39:00,
2013-09-02 15:55:00,72.5,70.0,29.70,ESE,102,2.0,9.0,92,0.00,,,0.77,weatherlink.com 1.10,2013-09-02 19:55:00,
2013-09-02 16:10:00,72.7,70.0,29.70,SE,133,3.0,8.0,91,0.00,,,0.77,weatherlink.com 1.10,2013-09-02 20:10:00,
2013-09-02 16:24:00,72.0,69.0,29.69,East,98,1.0,11.0,90,0.00,,,0.77,weatherlink.com 1.10,2013-09-02 20:24:00,
2013-09-02 16:39:00,70.8,69.0,29.69,NE,38,1.0,9.0,93,0.07,,,0.84,weatherlink.com 1.10,2013-09-02 20:39:00,
2013-09-02 16:54:00,71.6,70.0,29.68,ESE,114,5.0,7.0,93,0.07,,,0.84,weatherlink.com 1.10,2013-09-02 20:54:00,
2013-09-02 17:09:00,71.7,69.0,29.68,East,93,7.0,10.0,92,0.07,,,0.84,weatherlink.com 1.10,2013-09-02 21:09:00,
2013-09-02 17:24:00,71.6,69.0,29.67,East,97,3.0,8.0,92,0.06,,,0.84,weatherlink.com 1.10,2013-09-02 21:24:00,
2013-09-02 17:39:00,71.5,69.0,29.68,ENE,63,5.0,9.0,93,0.00,,,0.84,weatherlink.com 1.10,2013-09-02 21:39:00,
2013-09-02 17:54:00,71.1,69.0,29.68,WNW,290,2.0,6.0,93,0.00,,,0.84,weatherlink.com 1.10,2013-09-02 21:54:00,
2013-09-02 18:09:00,70.8,69.0,29.67,East,86,0.0,7.0,94,0.00,,,0.84,weatherlink.com 1.10,2013-09-02 22:09:00,
2013-09-02 18:24:00,70.6,69.0,29.66,ESE,118,5.0,7.0,94,0.00,,,0.84,weatherlink.com 1.10,2013-09-02 22:24:00,
2013-09-02 18:39:00,70.5,69.0,29.67,ENE,57,1.0,4.0,94,0.00,,,0.84,weatherlink.com 1.10,2013-09-02 22:39:00,
2013-09-02 18:54:00,70.4,69.0,29.67,East,91,0.0,5.0,95,0.00,,,0.84,weatherlink.com 1.10,2013-09-02 22:54:00,
2013-09-02 19:09:00,70.3,69.0,29.67,ESE,115,1.0,5.0,95,0.00,,,0.84,weatherlink.com 1.10,2013-09-02 23:09:00,
2013-09-02 19:24:00,70.1,69.0,29.68,ENE,68,0.0,4.0,95,0.00,,,0.84,weatherlink.com 1.10,2013-09-02 23:24:00,
2013-09-02 19:39:00,70.1,69.0,29.68,ENE,72,0.0,2.0,95,0.00,,,0.84,weatherlink.com 1.10,2013-09-02 23:39:00,
2013-09-02 19:54:00,70.1,69.0,29.67,East,99,0.0,6.0,95,0.00,,,0.84,weatherlink.com 1.10,2013-09-02 23:54:00,
2013-09-02 20:09:00,70.1,69.0,29.67,ESE,108,3.0,4.0,96,0.00,,,0.84,weatherlink.com 1.10,2013-09-03 00:09:00,
2013-09-02 20:24:00,70.1,69.0,29.68,ESE,111,2.0,4.0,96,0.00,,,0.84,weatherlink.com 1.10,2013-09-03 00:24:00,
2013-09-02 20:39:00,70.2,69.0,29.68,East,88,0.0,3.0,96,0.00,,,0.84,weatherlink.com 1.10,2013-09-03 00:39:00,
2013-09-02 20:54:00,70.0,69.0,29.68,East,89,0.0,5.0,96,0.00,,,0.84,weatherlink.com 1.10,2013-09-03 00:54:00,
2013-09-02 21:09:00,70.0,69.0,29.68,ESE,103,0.0,5.0,96,0.00,,,0.84,weatherlink.com 1.10,2013-09-03 01:09:00,
2013-09-02 21:24:00,70.1,69.0,29.69,ESE,103,0.0,1.0,96,0.00,,,0.84,weatherlink.com 1.10,2013-09-03 01:24:00,
2013-09-02 21:39:00,70.1,69.0,29.69,East,90,1.0,5.0,96,0.00,,,0.84,weatherlink.com 1.10,2013-09-03 01:39:00,
2013-09-02 21:54:00,70.1,69.0,29.70,ENE,74,0.0,5.0,96,0.00,,,0.84,weatherlink.com 1.10,2013-09-03 01:54:00,
2013-09-02 22:09:00,69.8,69.0,29.69,SSE,165,0.0,5.0,96,0.00,,,0.84,weatherlink.com 1.10,2013-09-03 02:09:00,
2013-09-02 22:24:00,69.7,69.0,29.69,East,88,1.0,2.0,96,0.00,,,0.84,weatherlink.com 1.10,2013-09-03 02:24:00,
2013-09-02 22:39:00,69.6,69.0,29.70,North,359,0.0,2.0,96,0.00,,,0.84,weatherlink.com 1.10,2013-09-03 02:39:00,
2013-09-02 22:54:00,69.2,67.0,29.70,NNW,345,2.0,12.0,93,0.02,,,0.86,weatherlink.com 1.10,2013-09-03 02:54:00,
2013-09-02 23:09:00,68.1,66.0,29.69,North,5,2.0,3.0,92,0.02,,,0.86,weatherlink.com 1.10,2013-09-03 03:09:00,
2013-09-02 23:24:00,67.1,65.0,29.68,NNW,328,0.0,3.0,94,0.03,,,0.87,weatherlink.com 1.10,2013-09-03 03:24:00,
2013-09-02 23:39:00,66.6,65.0,29.67,WNW,296,0.0,1.0,95,0.03,,,0.87,weatherlink.com 1.10,2013-09-03 03:39:00,
2013-09-02 23:54:00,66.2,65.0,29.67,NW,313,0.0,0.0,95,0.01,,,0.87,weatherlink.com 1.10,2013-09-03 03:54:00,